Vorticity
6 6 5 4 4 3 4 4 5 4 4 5 5 5 4 4 4 4 -2 2 6 3 5 4 3 2 5 6 7 5 4 11 14 8 2 8 4 -5 5 5 10 21 20 15 8 8 4 1 4 4 5 3 3 5 6 7 3 4 5 5 5 4 5 5 5 5 6 6 6 5 4 5 5 7 7 8 8 8 9 6 4 4 5 5 5 3 1 3 2 2 4 3 2 2 5 7 8
9 7 7 7 6 5 5 5 6 6 5 4 4 5 5 4 4 5 -0 -1 2 0 2 4 7 3 -1 3 2 5 3 1 9 12 8 7 5 1 -3 -1 7 -7 -15 -8 -6 9 12 3 2 -0 5 6 5 4 2 7 5 4 5 4 5 4 5 5 6 5 6 5 5 6 5 5 5 7 7 8 8 9 9 7 5 3 4 5 5 2 0 4 3 2 4 4 2 3 5 7 8
12 10 10 10 8 7 5 6 8 7 7 6 4 3 4 6 4 4 2 2 3 1 2 -2 5 9 2 2 1 7 10 4 5 8 10 5 7 20 8 -4 2 -5 -1 12 6 9 12 11 10 3 3 3 8 10 4 4 5 6 6 5 5 5 5 5 6 5 5 5 5 5 5 5 5 6 7 8 8 9 10 8 5 3 4 5 4 2 1 4 3 2 4 5 3 3 5 6 8
12 12 12 12 10 10 7 6 10 11 11 9 8 6 3 5 5 3 1 5 7 5 6 -2 -0 8 1 0 4 4 9 14 11 6 13 7 2 19 25 21 9 -3 8 17 9 0 -3 2 7 7 6 4 5 8 4 3 5 6 6 5 6 5 6 6 5 5 5 5 5 6 6 5 5 6 6 7 7 8 10 9 6 3 5 5 4 2 1 3 4 3 3 5 4 4 5 6 7
10 10 11 12 10 11 11 8 10 12 12 10 10 10 7 6 6 5 0 1 5 5 6 2 3 12 8 5 6 -3 -4 7 12 10 14 14 8 4 15 33 21 2 4 8 8 4 -1 -3 -1 4 5 6 6 6 6 4 4 5 6 6 6 5 5 6 5 4 5 5 6 6 6 6 5 5 6 7 8 8 9 9 5 3 5 5 4 2 1 2 5 3 2 6 5 5 5 5 6
9 9 9 11 9 9 11 10 10 9 11 12 11 12 12 10 9 8 5 -0 1 4 7 5 4 10 11 9 6 3 5 6 9 11 11 18 19 11 14 21 14 7 6 4 7 7 5 2 4 8 5 5 6 7 8 5 5 3 4 5 5 5 4 4 4 4 5 5 6 7 7 6 5 5 5 7 9 9 10 9 6 4 5 5 4 2 1 1 4 4 2 6 7 6 6 6 5
10 10 9 11 9 9 10 10 12 10 11 10 9 12 13 14 13 12 11 7 3 5 7 6 4 3 5 9 6 5 12 14 14 10 7 18 23 17 15 12 9 9 6 4 5 5 4 3 6 10 11 9 6 7 8 7 5 3 3 3 3 3 4 3 4 4 5 5 5 6 8 7 6 6 6 6 8 10 11 9 6 5 5 5 4 2 1 1 2 4 3 5 7 7 6 5 4
9 8 7 11 7 7 9 9 11 10 11 10 9 10 11 13 14 15 14 13 7 5 7 3 4 6 5 6 4 2 6 14 21 17 5 5 13 16 12 9 11 8 4 6 4 4 4 3 6 8 10 11 9 7 7 8 6 4 2 2 3 2 3 3 3 4 4 4 5 6 8 8 8 7 7 6 8 10 11 10 6 6 6 5 4 2 2 1 1 3 4 4 7 8 7 6 4
8 6 3 7 6 5 8 9 10 9 10 10 9 8 11 11 11 15 15 16 11 9 14 9 5 7 4 1 2 3 -1 2 7 7 3 -4 -4 1 6 9 10 6 4 6 3 2 3 3 5 5 4 6 7 7 7 8 6 5 3 1 2 2 2 3 2 3 4 4 4 6 6 7 7 8 8 7 8 11 12 10 6 6 7 6 5 3 2 1 -0 2 4 4 6 8 8 6 3
7 8 4 4 5 5 5 6 7 7 7 8 9 9 9 10 11 12 12 15 13 8 10 13 12 8 5 4 6 8 7 9 9 5 6 8 7 1 1 4 2 0 -1 1 4 2 3 4 3 3 2 4 4 3 5 7 7 5 4 3 2 1 1 2 2 2 4 5 5 5 1 0 2 5 8 8 9 11 12 11 7 5 7 7 5 4 2 1 -0 1 4 4 6 8 8 6 4
6 8 6 4 4 5 5 5 6 6 7 7 8 7 7 10 10 10 15 16 16 11 3 8 13 12 9 6 4 8 12 8 5 13 14 11 13 10 4 2 -1 3 7 7 9 6 5 7 7 7 2 0 4 5 2 3 7 7 5 4 3 2 1 1 2 2 4 5 4 -0 -2 -0 3 5 6 8 9 11 13 11 7 5 7 8 6 4 3 1 -0 0 3 4 5 7 7 6 4
6 7 6 5 5 5 5 5 6 6 6 7 7 6 6 10 12 17 20 15 14 10 5 9 9 7 5 4 1 1 11 5 -4 3 7 5 1 0 2 3 2 3 6 4 5 6 7 10 12 19 19 8 4 6 5 2 2 4 6 5 4 3 2 2 2 3 4 3 0 -2 0 3 4 6 7 9 8 9 13 13 8 5 6 8 8 5 3 2 -0 1 2 4 6 6 6 6 4
7 6 6 6 6 6 6 6 6 7 6 7 6 6 6 10 21 25 17 10 11 8 9 16 10 6 2 3 4 -0 9 10 5 -3 -11 -3 1 3 6 3 3 0 0 -1 0 3 3 7 2 3 16 15 6 5 5 5 3 2 4 5 4 4 2 2 2 2 3 1 0 0 3 4 3 4 7 10 9 8 11 14 9 5 5 7 8 6 4 2 0 1 2 4 6 7 6 5 4
7 6 5 5 6 6 5 5 6 6 6 7 7 11 12 9 11 9 4 2 4 6 12 18 11 6 6 6 5 2 5 3 5 2 -9 -5 -0 5 4 -10 -9 -2 3 4 3 4 2 4 1 -6 -1 5 6 6 3 1 3 4 3 3 4 4 3 3 2 2 2 1 2 3 3 4 5 4 6 8 7 6 9 12 10 5 4 6 8 8 5 2 1 1 1 3 6 7 6 4 4
8 6 6 6 6 6 6 7 6 7 7 7 9 11 10 8 1 -7 -1 2 -3 2 11 16 8 6 15 13 11 11 11 11 4 -4 -4 3 3 0 -2 -8 -4 3 4 3 5 9 7 3 5 6 6 6 6 10 10 2 -1 1 3 3 2 3 4 3 4 3 3 3 3 3 4 5 6 5 6 7 5 4 6 9 9 6 4 5 8 8 6 3 1 1 1 3 5 8 6 3 3
7 4 6 6 7 8 7 8 6 8 6 6 11 7 5 13 9 -3 0 3 0 4 8 9 1 2 15 9 12 17 11 21 22 13 13 14 15 8 5 10 14 14 6 -3 1 8 9 6 3 3 6 10 8 7 9 7 2 -1 1 2 3 3 3 3 3 4 4 5 6 5 5 6 6 6 6 7 7 5 4 6 8 6 4 4 8 8 6 3 1 1 2 3 4 7 7 3 3
7 7 8 7 8 8 8 9 8 8 8 8 11 7 8 15 16 9 2 2 2 0 3 10 6 1 9 12 15 14 2 11 21 24 19 7 13 17 9 9 12 16 15 5 4 5 2 4 8 7 5 6 8 7 6 10 9 4 2 2 3 4 4 3 2 3 4 5 6 6 7 6 5 6 6 6 8 9 7 6 6 7 5 5 7 9 6 3 2 1 2 3 4 6 6 3 3
11 11 11 11 12 12 12 12 10 10 9 6 3 5 14 16 18 16 4 6 5 -6 -2 10 12 4 6 14 15 18 15 4 1 8 11 1 4 12 11 7 6 9 14 15 10 5 0 -1 3 7 7 5 6 9 10 12 12 8 5 3 2 3 3 3 3 2 3 5 6 6 6 4 2 2 3 4 7 11 10 8 7 7 8 7 8 9 7 4 2 2 2 3 4 5 6 3 3
13 13 13 15 15 15 15 14 15 15 13 11 6 9 19 16 19 18 -1 5 16 3 -0 5 13 16 11 5 -0 22 39 15 -4 3 8 8 2 1 9 10 7 8 11 18 14 5 3 3 1 2 6 9 8 6 6 7 5 3 3 3 3 2 3 2 3 3 2 5 5 5 3 1 -0 -1 0 4 5 9 11 9 8 8 9 9 9 10 7 5 2 2 2 3 5 5 5 3 3
12 14 16 17 16 18 21 20 20 15 12 13 13 16 19 14 17 19 -3 -6 15 14 0 -0 14 23 21 9 -18 -15 20 28 21 17 3 -0 5 -0 1 5 2 4 6 13 21 15 8 5 3 4 5 7 8 4 2 1 -3 -3 1 6 5 2 4 3 1 2 3 5 5 4 2 1 2 1 4 8 6 7 10 9 10 10 10 10 10 10 7 4 2 2 3 3 5 4 4 3 2
15 16 16 17 17 20 23 23 24 22 20 18 14 14 16 16 13 9 -3 -11 1 10 2 0 10 14 19 22 4 -15 -4 20 31 34 20 2 7 8 1 6 4 1 1 2 12 18 16 9 3 4 5 3 1 1 3 3 0 -1 1 8 10 5 6 6 4 2 1 4 7 6 4 5 5 5 8 10 8 9 11 10 11 11 10 11 11 10 7 4 3 3 3 4 5 4 4 3 2
16 15 15 18 17 16 16 16 16 17 20 22 19 14 14 20 14 -3 -6 -4 -4 3 3 2 8 8 7 6 11 3 -23 -21 -3 9 18 9 3 5 3 8 9 8 9 3 2 8 13 12 7 6 5 3 -0 -1 6 11 12 10 8 8 9 7 7 6 5 4 3 3 6 7 6 8 7 6 10 12 11 13 13 11 11 11 10 13 12 10 7 4 4 3 4 4 5 5 3 3 2
13 13 15 15 16 16 14 11 11 13 17 22 21 18 19 19 13 -5 -11 -2 0 5 4 1 3 3 12 13 13 15 -16 -30 -14 -10 0 8 5 2 -1 1 4 6 9 7 4 4 5 5 6 7 6 6 2 -0 9 17 20 18 14 9 6 5 5 4 5 5 5 4 5 7 7 9 8 8 11 12 12 14 13 11 11 11 11 13 12 10 7 5 4 4 5 4 4 6 3 2 3
12 12 11 13 17 17 14 12 13 18 23 25 23 23 26 23 17 -1 -14 -3 3 4 11 13 8 -5 6 23 16 22 18 -5 -12 -10 -5 1 7 7 -1 -2 -1 3 4 4 8 11 12 10 8 9 7 7 6 2 7 13 17 21 16 7 5 6 4 3 5 7 7 7 5 7 8 7 7 9 11 10 10 12 10 10 11 11 10 11 11 9 6 5 5 4 5 4 5 6 4 2 2
11 7 9 14 16 15 12 13 11 14 22 29 32 27 24 28 26 6 -15 -6 3 -2 3 13 16 1 -3 8 1 3 22 25 10 4 5 -1 1 4 1 1 2 9 11 5 6 8 10 13 14 13 8 6 8 8 6 1 3 17 22 11 6 8 10 6 5 8 9 9 7 8 8 5 6 8 8 8 8 9 8 7 7 9 10 9 9 8 6 5 3 4 5 5 5 5 5 3 2
7 6 13 13 12 12 8 9 9 11 18 21 25 26 26 32 32 20 -3 -13 -5 -1 -3 2 14 10 -1 1 5 -0 -1 13 17 8 9 8 5 5 6 8 2 3 12 13 9 5 2 2 6 11 13 9 7 8 9 3 -2 6 18 21 14 5 8 8 4 8 8 6 7 8 7 4 6 6 5 6 5 7 5 3 2 4 8 8 8 7 5 5 3 4 5 5 6 6 5 3 2
6 7 13 11 7 8 6 9 10 10 18 19 15 15 24 37 35 27 12 -7 -10 0 0 -4 3 9 6 1 4 11 4 -1 3 3 6 9 9 8 11 16 10 -3 -3 8 9 7 6 3 3 6 11 12 8 8 7 8 6 3 6 11 15 9 10 10 3 4 6 6 7 7 8 5 5 4 3 5 4 4 1 -1 0 2 4 5 7 6 4 4 4 4 5 6 6 6 6 3 2
10 10 10 11 6 8 10 10 12 13 23 30 26 22 23 37 47 34 14 3 -4 0 5 -0 2 9 16 12 -2 3 13 8 2 1 0 3 6 2 0 4 10 7 -4 -6 -5 -4 -1 3 8 6 6 8 9 10 7 8 9 8 2 -6 2 8 11 18 8 2 3 3 5 7 9 6 4 2 2 6 5 2 1 -1 2 3 4 4 5 5 4 3 4 5 6 6 6 7 6 3 2
15 14 9 11 8 11 14 8 9 16 19 23 31 38 31 25 44 45 19 9 6 -1 -2 3 12 11 8 9 4 1 5 5 6 2 -7 -9 -8 -10 -9 -12 -5 9 3 -3 -3 -2 -1 1 9 10 6 3 4 9 9 11 11 13 10 0 6 2 8 32 18 0 2 -0 1 6 11 8 2 2 2 6 7 3 2 2 5 6 4 4 4 4 3 3 4 5 6 7 7 8 7 4 2
11 14 8 10 11 13 19 10 6 17 12 11 18 20 22 14 19 38 28 14 15 10 -2 -2 5 1 -2 -4 -3 6 5 0 5 8 3 2 1 0 4 -1 -4 0 -3 -1 2 2 7 9 12 13 9 3 1 5 6 8 10 14 13 8 14 -1 5 40 24 1 4 -1 -1 3 11 13 3 3 4 4 5 4 4 5 8 7 4 4 4 4 4 3 4 5 7 7 8 9 7 5 3
10 11 3 10 14 9 18 13 7 15 -1 2 21 7 9 17 11 28 37 20 12 11 5 2 -2 -7 3 3 -10 -4 4 1 0 1 4 9 9 5 3 0 -0 0 -4 -2 -3 -0 10 14 12 12 12 10 6 7 7 7 6 10 12 7 13 3 5 26 14 6 11 3 2 1 6 16 8 2 3 3 4 5 6 7 8 6 4 4 4 4 5 5 4 5 7 7 9 10 8 4 3
8 4 -1 8 13 4 10 11 12 14 -14 3 40 12 -0 15 10 21 37 35 24 14 10 8 7 -0 0 5 -3 -5 -1 -0 -0 -3 -4 -3 -4 -4 -3 -2 0 4 5 4 2 5 12 9 4 -1 2 5 4 4 3 6 7 6 8 4 7 7 8 16 5 -1 8 8 7 3 4 14 12 3 1 3 5 7 7 7 7 6 4 4 4 5 5 6 5 5 7 8 9 9 8 4 3
5 4 3 7 12 7 7 7 12 9 -9 19 41 3 -2 15 8 12 21 29 33 28 29 26 28 26 14 10 13 14 10 5 3 2 1 -1 -1 1 4 7 8 9 11 11 11 13 13 9 4 -1 -2 -2 -3 -3 -6 -4 2 2 3 5 9 10 8 21 22 3 0 13 15 7 5 11 13 6 1 3 5 7 7 5 5 5 6 5 5 5 4 6 6 4 6 8 9 9 8 5 2
7 11 11 7 9 9 9 9 10 8 0 23 34 -2 -2 12 4 7 8 8 11 12 17 16 18 27 25 22 22 26 26 21 16 14 13 13 15 16 15 15 15 15 14 14 14 13 13 11 10 8 8 6 4 3 -0 -2 -1 -0 3 5 11 15 7 9 22 13 4 18 25 13 5 6 10 8 3 3 5 6 5 4 4 4 7 8 6 5 5 5 6 6 5 7 10 9 7 5 2
7 10 11 7 9 13 13 10 5 7 1 9 26 10 -3 3 -0 -0 2 1 1 1 3 3 4 10 16 20 21 23 27 29 28 25 22 19 17 16 14 13 13 14 13 13 12 10 10 11 11 12 11 11 11 9 8 6 3 0 4 7 6 9 8 0 -0 3 5 17 27 19 7 3 5 7 6 4 5 5 4 3 4 4 6 8 6 5 5 5 5 7 6 6 8 8 7 5 3
6 8 9 5 9 14 11 11 4 3 6 3 13 17 5 2 1 -1 3 2 1 2 3 6 8 11 20 23 18 17 19 22 24 23 22 20 17 15 14 14 14 14 13 11 10 10 12 13 12 13 13 11 12 13 11 11 8 1 -1 8 11 5 8 12 7 3 4 7 14 14 10 6 3 4 7 10 9 6 4 3 4 5 6 6 6 5 6 7 5 5 6 7 6 7 7 5 3
5 6 8 5 9 14 9 14 9 -2 8 10 3 12 14 11 9 3 -0 -0 2 3 0 2 4 8 18 16 7 5 9 12 16 17 19 20 19 18 16 16 15 15 16 16 16 15 15 16 13 12 16 13 10 12 13 12 11 7 1 -2 4 3 3 15 19 16 16 12 5 2 6 10 10 7 4 9 13 9 3 3 4 4 5 4 3 3 5 6 5 5 6 7 7 7 7 5 2
4 5 7 6 9 14 8 12 13 1 9 15 4 5 8 10 19 16 3 -3 -3 -3 -2 -1 -2 0 11 16 10 6 6 8 10 8 9 12 12 11 11 12 13 12 14 16 17 16 14 17 18 14 15 15 12 9 11 13 9 8 10 1 -1 2 2 8 7 2 12 18 11 5 5 9 14 15 8 4 10 12 6 3 4 5 6 3 -0 2 4 4 6 7 6 7 7 7 7 5 3
5 6 5 5 11 13 7 8 12 6 8 13 10 11 8 3 14 22 18 8 -2 -4 -0 0 0 1 5 8 6 6 10 14 17 12 8 10 11 12 12 12 13 11 11 11 11 11 9 11 15 14 13 13 12 9 7 11 11 9 12 10 3 -1 1 6 6 1 6 14 15 10 6 8 14 17 15 7 4 10 10 5 5 7 7 4 -0 2 4 3 5 7 6 6 5 5 6 6 4
7 8 5 6 13 13 8 8 11 9 9 11 8 12 15 8 7 13 18 18 13 11 10 8 8 6 -0 -4 -2 5 10 12 15 13 9 8 8 8 8 7 9 10 11 11 10 11 9 8 11 14 15 15 13 11 7 5 9 12 11 11 7 2 -1 -1 4 4 1 7 16 16 10 6 10 14 19 16 4 5 12 9 8 10 9 6 2 2 4 3 4 5 5 5 5 5 5 4 3
8 9 8 7 10 11 8 5 6 12 14 9 4 7 12 14 13 11 10 13 13 8 9 11 10 9 11 12 14 14 10 6 4 4 5 5 5 5 5 6 6 8 10 10 10 10 9 10 11 13 15 18 17 14 12 7 5 9 10 10 8 7 4 -1 -1 -4 -9 -3 4 13 19 10 6 8 17 25 12 3 10 10 8 9 9 7 4 3 4 2 2 3 4 4 4 4 4 3 1
6 4 3 5 9 9 7 3 2 11 15 10 8 10 11 13 13 11 8 10 12 9 8 10 7 8 13 14 15 16 14 14 11 7 7 6 6 7 6 7 7 10 12 12 12 10 8 8 10 14 15 16 16 15 15 12 6 6 8 10 10 9 6 3 4 -0 -4 -2 -10 -1 18 13 5 3 7 23 21 8 10 11 6 5 8 8 5 3 3 2 2 2 4 4 4 4 3 3 2
6 2 0 3 7 5 5 6 2 4 10 11 12 11 10 11 11 8 6 5 10 17 17 16 15 12 7 3 5 10 9 10 11 9 10 9 8 7 5 6 6 7 8 8 9 9 8 9 8 11 14 16 16 15 17 16 12 10 7 7 10 11 9 4 5 2 -0 1 -6 -0 14 7 0 -2 -3 12 19 11 10 12 8 4 6 9 6 3 2 3 3 2 3 3 3 4 3 3 3
9 5 4 4 4 2 4 6 3 2 5 9 14 12 6 11 14 8 7 6 7 15 19 20 25 25 18 9 7 11 8 6 9 12 14 13 11 10 10 11 11 10 10 8 6 5 5 8 9 9 10 14 17 16 18 17 15 14 12 8 7 11 14 9 7 5 3 3 -2 -0 11 9 -0 -5 -4 3 8 9 9 11 13 6 4 9 9 6 4 4 4 2 3 3 2 3 4 4 3
10 6 5 6 4 3 3 3 4 4 4 7 13 13 8 11 13 8 10 12 5 9 13 9 12 18 18 13 7 8 6 -1 3 11 12 9 8 10 11 13 14 14 13 12 12 11 9 9 10 12 10 10 14 16 18 18 15 14 14 12 7 8 13 12 9 7 5 7 4 -1 4 9 6 1 2 4 2 6 10 12 18 12 4 10 11 8 6 3 2 2 3 3 3 3 4 4 3
10 8 7 9 10 9 7 6 5 2 2 2 3 12 19 15 12 9 7 7 3 6 11 7 6 11 16 16 8 4 1 -5 0 11 11 7 8 11 14 17 19 19 17 14 14 14 14 12 11 12 13 12 13 14 16 19 18 14 14 14 10 7 12 13 11 9 5 6 7 6 2 2 8 8 3 2 -1 3 12 18 25 19 6 11 13 9 8 4 2 4 5 5 4 3 3 3 4
9 10 9 10 12 12 11 9 7 5 6 4 3 13 21 16 18 21 12 7 7 5 5 7 6 8 13 12 6 4 4 1 4 8 7 6 8 11 13 14 16 21 23 18 16 14 13 13 12 11 11 11 13 14 15 19 21 18 14 14 12 8 11 13 12 11 9 6 5 8 6 0 9 15 7 3 -1 -0 13 22 28 25 9 7 13 10 8 7 6 5 4 4 5 5 5 4 3
11 10 7 9 9 8 12 9 5 6 7 5 5 7 7 9 18 25 17 9 6 0 -0 3 2 3 7 8 6 7 6 6 7 6 4 3 4 4 6 8 11 18 21 18 16 17 16 15 15 14 13 10 10 11 13 15 20 22 19 16 13 9 10 14 14 11 9 10 6 5 7 1 2 13 13 11 2 -3 12 21 20 21 11 5 12 11 6 8 9 5 2 3 5 6 6 5 4
7 5 4 9 10 10 15 14 10 11 10 7 7 3 2 4 6 10 13 15 13 5 -2 -1 2 7 9 9 9 7 4 6 7 7 5 3 0 1 3 6 10 12 11 10 11 12 14 15 16 17 16 15 13 11 12 12 14 19 21 21 17 10 8 11 14 14 10 11 9 5 8 4 -1 2 7 12 7 -4 7 17 10 9 9 9 15 11 4 6 8 4 1 4 6 7 6 3 3
1 4 6 8 12 14 16 17 15 15 14 13 11 9 7 5 1 1 7 13 17 13 6 4 5 7 9 9 6 3 4 6 7 7 6 4 3 5 7 7 8 9 8 8 8 8 9 11 13 14 15 16 15 13 13 14 14 15 16 20 21 16 10 9 10 14 12 11 12 8 8 8 4 2 1 8 10 -0 0 10 9 7 11 16 21 16 5 3 7 6 3 4 6 6 4 1 1
3 5 7 7 10 12 12 12 12 11 12 13 10 11 13 11 10 10 9 10 11 11 9 8 7 6 10 11 6 5 8 6 4 3 3 6 7 8 9 9 8 8 9 8 8 8 9 11 11 12 14 15 17 15 14 13 14 16 16 16 19 20 16 12 9 9 11 12 13 11 9 8 8 7 5 6 9 7 0 -1 -1 2 9 14 17 18 11 3 3 7 4 2 5 3 -1 -1 1
9 6 5 7 9 11 9 7 8 9 11 11 8 11 16 16 16 15 12 9 7 5 6 10 15 13 7 7 9 10 8 1 -2 -0 2 6 8 7 7 9 11 10 8 9 9 8 9 11 11 9 9 11 14 17 18 17 13 13 17 17 17 19 19 18 15 10 9 9 12 12 10 10 9 8 8 7 8 9 5 -2 -11 -12 2 13 13 12 16 11 4 6 7 2 2 2 0 2 3
15 12 5 3 6 8 6 4 7 8 7 7 8 8 9 10 12 11 9 7 4 5 5 6 16 25 22 16 10 3 -3 -3 1 3 4 6 6 6 6 8 12 12 9 8 9 9 9 9 9 7 6 8 11 14 17 20 18 14 16 18 17 17 17 19 19 16 13 10 10 11 9 10 12 10 7 7 8 8 8 7 -4 -16 -12 3 8 6 11 16 9 6 10 6 1 2 2 5 6
11 9 4 2 5 6 4 4 6 6 4 5 6 4 6 10 10 8 7 9 9 10 10 4 9 24 26 9 -7 -9 -4 3 7 5 5 6 5 6 6 6 10 13 10 7 7 9 9 8 7 6 6 8 10 13 13 14 18 19 18 18 19 19 19 18 18 18 18 15 12 12 9 7 11 12 9 8 8 7 8 12 11 2 -7 -5 2 3 6 17 16 8 11 9 1 3 3 4 8
10 7 4 3 5 5 4 3 3 4 4 4 4 4 8 9 7 6 7 8 9 9 10 8 6 10 7 -6 -8 3 9 10 10 9 9 8 8 9 8 6 8 11 10 7 6 7 7 7 7 6 7 8 10 14 16 12 11 14 18 19 20 21 22 21 20 19 19 19 17 15 11 7 9 13 12 9 8 8 7 11 17 17 11 2 1 3 6 16 20 13 15 15 3 0 5 7 9
9 9 8 5 6 6 4 2 2 5 6 6 6 8 10 8 5 6 5 3 5 8 10 10 10 10 7 5 7 10 10 11 13 11 8 6 7 9 10 8 9 11 12 9 7 7 8 7 7 7 7 8 8 11 17 17 13 11 12 13 14 18 21 23 23 22 21 20 19 19 15 9 8 12 13 10 9 9 5 5 14 22 21 13 7 4 2 10 19 17 16 20 12 1 1 5 9
8 9 10 8 7 5 3 3 3 5 7 8 8 7 8 7 6 7 5 4 5 8 12 12 11 11 9 8 9 10 11 11 8 6 6 8 10 11 13 14 14 15 14 12 9 9 9 7 7 9 9 9 8 7 12 17 17 14 12 10 8 9 13 17 21 23 24 23 21 20 18 13 10 11 13 11 9 11 7 -1 1 9 13 12 11 7 -4 -4 12 21 17 19 18 8 1 2 6
11 13 12 11 7 4 6 6 4 3 6 7 7 7 7 5 4 7 7 7 8 7 10 9 6 7 9 9 10 8 7 6 5 8 10 11 14 16 17 19 19 18 16 13 12 11 10 8 7 8 9 11 9 6 9 16 19 17 14 11 10 9 9 11 15 19 21 24 25 24 21 15 12 11 13 13 9 9 11 4 -4 -6 -7 -4 1 5 4 -3 3 19 27 27 23 12 2 1 3
Height
5836 5837 5837 5838 5839 5839 5839 5840 5841 5841 5841 5842 5845 5846 5849 5852 5853 5856 5857 5855 5854 5852 5851 5852 5852 5851 5850 5850 5852 5853 5854 5854 5854 5854 5855 5857 5858 5858 5858 5859 5860 5861 5860 5860 5861 5862 5862 5864 5865 5866 5867 5868 5869 5870 5871 5873 5874 5875 5875 5876 5877 5877 5877 5878 5878 5879 5880 5880 5881 5881 5881 5881 5882 5883 5883 5883 5883 5883 5882 5882 5882 5882 5883 5883 5883 5883 5883 5883 5883 5883 5882 5881 5881 5881 5881 5881 5880
5833 5834 5834 5835 5836 5836 5836 5837 5837 5837 5838 5839 5842 5844 5847 5849 5851 5854 5854 5852 5851 5849 5848 5848 5848 5848 5847 5848 5849 5850 5851 5852 5852 5853 5853 5855 5856 5855 5855 5857 5859 5859 5859 5859 5860 5862 5862 5863 5864 5865 5867 5868 5869 5869 5870 5871 5872 5873 5874 5875 5875 5876 5876 5877 5877 5878 5879 5879 5880 5880 5880 5881 5882 5882 5883 5883 5883 5882 5882 5882 5882 5882 5882 5883 5883 5883 5883 5883 5883 5883 5882 5882 5881 5881 5881 5881 5880
5831 5831 5831 5832 5833 5833 5833 5833 5833 5835 5835 5836 5839 5842 5844 5846 5849 5851 5851 5849 5848 5847 5845 5843 5843 5844 5845 5846 5847 5848 5848 5849 5850 5851 5852 5853 5853 5852 5854 5855 5856 5857 5857 5858 5860 5861 5862 5862 5863 5865 5866 5867 5868 5869 5869 5870 5871 5872 5873 5873 5874 5875 5875 5876 5876 5877 5878 5878 5879 5879 5880 5880 5881 5882 5882 5882 5882 5882 5882 5882 5882 5882 5882 5882 5883 5883 5883 5883 5883 5883 5882 5882 5881 5880 5881 5881 5880
5828 5828 5828 5829 5830 5830 5830 5829 5830 5831 5832 5833 5836 5839 5841 5843 5846 5848 5848 5847 5847 5845 5841 5840 5841 5840 5842 5843 5845 5847 5846 5846 5848 5849 5850 5850 5850 5850 5852 5852 5854 5855 5855 5857 5858 5859 5860 5862 5863 5865 5866 5867 5868 5868 5869 5869 5870 5871 5871 5872 5873 5873 5874 5874 5875 5876 5877 5877 5878 5878 5879 5879 5880 5881 5882 5882 5882 5881 5881 5881 5882 5882 5882 5882 5882 5882 5882 5883 5883 5883 5882 5882 5881 5880 5880 5880 5880
5825 5826 5826 5827 5827 5827 5827 5826 5827 5828 5830 5832 5833 5836 5838 5839 5842 5844 5846 5845 5842 5840 5837 5837 5839 5838 5839 5841 5843 5845 5844 5844 5846 5847 5847 5848 5849 5849 5850 5850 5852 5854 5854 5855 5856 5857 5859 5860 5862 5864 5865 5866 5867 5868 5868 5869 5869 5870 5870 5871 5871 5872 5872 5873 5874 5875 5875 5876 5876 5877 5878 5878 5879 5880 5881 5881 5881 5881 5881 5881 5881 5881 5881 5882 5882 5882 5882 5882 5882 5883 5882 5882 5881 5880 5880 5880 5879
5823 5823 5824 5824 5824 5824 5824 5824 5825 5826 5828 5830 5830 5832 5835 5836 5838 5840 5842 5842 5838 5835 5834 5836 5836 5837 5838 5838 5840 5841 5842 5843 5844 5844 5845 5846 5847 5848 5849 5848 5850 5852 5853 5854 5855 5856 5857 5859 5860 5862 5864 5865 5866 5867 5867 5868 5868 5869 5869 5870 5870 5871 5871 5872 5872 5873 5874 5874 5875 5876 5877 5877 5878 5878 5880 5880 5881 5881 5880 5880 5880 5880 5880 5881 5881 5881 5882 5882 5882 5882 5882 5882 5881 5881 5880 5880 5879
5820 5821 5821 5821 5821 5821 5821 5822 5823 5824 5826 5827 5826 5828 5831 5833 5834 5836 5838 5839 5838 5834 5832 5834 5833 5834 5836 5836 5837 5838 5839 5840 5842 5843 5843 5844 5844 5846 5847 5847 5848 5849 5851 5852 5854 5855 5856 5857 5859 5861 5862 5863 5864 5865 5866 5866 5867 5867 5868 5869 5869 5870 5870 5871 5871 5872 5873 5873 5874 5875 5876 5876 5877 5877 5878 5879 5880 5880 5879 5879 5879 5879 5879 5879 5880 5881 5881 5881 5882 5882 5882 5882 5881 5881 5880 5879 5879
5819 5818 5818 5819 5818 5818 5819 5819 5821 5822 5823 5824 5823 5825 5827 5829 5831 5833 5835 5835 5837 5834 5830 5831 5829 5830 5832 5833 5834 5835 5837 5837 5839 5841 5840 5841 5842 5843 5844 5845 5846 5848 5849 5850 5851 5853 5854 5856 5857 5859 5860 5861 5862 5863 5864 5865 5865 5866 5866 5867 5868 5868 5869 5869 5870 5871 5871 5872 5873 5874 5875 5875 5876 5876 5877 5878 5878 5879 5879 5878 5879 5879 5878 5878 5879 5880 5880 5881 5881 5881 5881 5881 5881 5880 5880 5879 5879
5817 5816 5816 5816 5816 5816 5816 5817 5818 5819 5820 5821 5821 5822 5824 5826 5828 5829 5831 5831 5832 5832 5829 5828 5827 5827 5827 5830 5832 5832 5834 5835 5837 5837 5837 5838 5839 5841 5842 5843 5844 5846 5847 5848 5849 5851 5852 5853 5854 5856 5857 5859 5860 5861 5862 5863 5863 5864 5865 5865 5866 5867 5867 5868 5869 5869 5870 5871 5871 5872 5874 5874 5875 5875 5876 5877 5877 5877 5877 5877 5878 5878 5878 5878 5878 5878 5879 5880 5880 5881 5881 5881 5880 5880 5880 5879 5879
5815 5814 5814 5813 5814 5814 5814 5815 5816 5817 5817 5818 5819 5820 5821 5823 5825 5825 5826 5826 5828 5828 5827 5826 5825 5824 5823 5826 5829 5830 5831 5833 5835 5833 5833 5835 5836 5838 5839 5840 5841 5843 5845 5846 5847 5849 5850 5851 5852 5853 5855 5856 5858 5859 5860 5861 5861 5862 5863 5864 5864 5865 5865 5866 5867 5868 5868 5869 5870 5871 5872 5873 5874 5874 5875 5876 5876 5876 5876 5876 5877 5877 5877 5877 5877 5877 5878 5879 5879 5880 5880 5880 5880 5879 5879 5879 5878
5812 5812 5812 5811 5811 5811 5812 5813 5813 5814 5814 5815 5816 5817 5820 5821 5821 5822 5822 5822 5824 5825 5824 5823 5821 5821 5821 5822 5825 5827 5828 5830 5832 5830 5829 5831 5833 5835 5836 5837 5838 5840 5843 5845 5846 5847 5848 5850 5851 5852 5853 5854 5855 5857 5859 5859 5860 5860 5861 5862 5862 5863 5863 5864 5865 5866 5867 5868 5869 5870 5871 5872 5872 5873 5874 5874 5875 5875 5875 5875 5876 5876 5876 5877 5876 5876 5877 5877 5878 5879 5879 5879 5879 5879 5878 5878 5878
5810 5810 5809 5808 5808 5809 5809 5809 5810 5811 5811 5812 5813 5815 5817 5818 5818 5819 5819 5819 5820 5821 5820 5819 5818 5818 5818 5818 5821 5823 5825 5827 5828 5829 5828 5828 5830 5832 5834 5835 5836 5838 5841 5842 5843 5845 5847 5848 5849 5850 5851 5852 5853 5855 5857 5858 5858 5859 5859 5860 5860 5861 5861 5863 5864 5865 5865 5866 5867 5868 5869 5870 5871 5872 5872 5873 5873 5874 5874 5874 5874 5875 5875 5876 5876 5876 5876 5876 5877 5877 5878 5878 5878 5878 5878 5878 5877
5807 5807 5806 5805 5806 5806 5806 5806 5807 5807 5808 5809 5811 5813 5814 5814 5815 5815 5815 5815 5816 5817 5815 5815 5815 5816 5816 5815 5817 5820 5822 5824 5825 5826 5825 5825 5828 5830 5831 5833 5834 5835 5838 5840 5841 5843 5845 5846 5847 5848 5849 5850 5851 5853 5854 5856 5857 5857 5858 5858 5859 5859 5860 5861 5862 5863 5864 5865 5866 5867 5868 5869 5870 5870 5871 5872 5872 5872 5872 5873 5873 5873 5874 5874 5875 5875 5875 5875 5876 5876 5877 5877 5877 5877 5877 5877 5877
5804 5803 5802 5802 5803 5803 5802 5803 5804 5804 5805 5807 5808 5809 5809 5809 5809 5810 5810 5809 5811 5812 5811 5812 5813 5814 5813 5811 5813 5816 5818 5820 5822 5822 5822 5823 5825 5827 5828 5830 5832 5833 5835 5838 5839 5841 5842 5844 5845 5846 5847 5849 5850 5851 5852 5854 5855 5855 5856 5857 5857 5857 5858 5859 5860 5861 5863 5863 5864 5865 5866 5868 5869 5869 5870 5871 5871 5871 5871 5871 5872 5872 5872 5873 5873 5874 5874 5874 5875 5875 5875 5876 5876 5876 5876 5877 5876
5801 5800 5799 5798 5799 5800 5800 5800 5800 5801 5802 5804 5805 5804 5804 5804 5804 5805 5805 5806 5807 5807 5807 5809 5811 5812 5811 5810 5811 5812 5814 5817 5819 5819 5818 5819 5822 5824 5826 5828 5829 5830 5832 5836 5837 5839 5841 5842 5843 5845 5846 5848 5849 5850 5851 5852 5853 5854 5854 5855 5855 5855 5856 5856 5857 5859 5860 5861 5863 5864 5865 5866 5867 5868 5869 5869 5870 5870 5870 5870 5870 5871 5871 5871 5872 5872 5873 5873 5874 5874 5874 5875 5875 5875 5876 5876 5876
5797 5796 5795 5795 5796 5796 5796 5796 5796 5797 5798 5801 5800 5798 5800 5801 5801 5802 5803 5803 5804 5804 5804 5805 5807 5808 5808 5808 5808 5808 5810 5812 5814 5816 5814 5815 5818 5820 5822 5825 5826 5827 5829 5832 5835 5837 5839 5840 5842 5843 5845 5846 5847 5849 5849 5850 5851 5852 5853 5853 5853 5854 5854 5854 5855 5856 5857 5859 5860 5862 5863 5864 5865 5866 5867 5868 5868 5869 5869 5869 5869 5870 5870 5870 5871 5871 5871 5872 5872 5873 5873 5874 5874 5874 5875 5875 5875
5793 5793 5792 5791 5792 5792 5792 5792 5792 5793 5794 5796 5795 5794 5797 5798 5798 5800 5801 5800 5801 5802 5802 5801 5802 5803 5803 5803 5804 5805 5807 5809 5810 5811 5810 5811 5815 5817 5819 5821 5823 5824 5826 5828 5831 5834 5836 5837 5839 5840 5841 5843 5844 5846 5848 5849 5850 5850 5851 5852 5852 5852 5852 5852 5852 5853 5854 5856 5858 5859 5860 5861 5863 5864 5865 5866 5867 5867 5868 5868 5868 5868 5869 5869 5869 5870 5870 5870 5871 5872 5872 5873 5873 5873 5874 5874 5875
5790 5789 5788 5788 5788 5788 5788 5788 5788 5788 5788 5789 5790 5791 5794 5794 5795 5798 5799 5797 5798 5799 5796 5796 5797 5797 5797 5798 5801 5802 5804 5806 5806 5806 5806 5809 5812 5813 5815 5817 5820 5821 5823 5824 5827 5830 5832 5833 5835 5836 5837 5839 5841 5842 5844 5846 5847 5848 5849 5850 5850 5850 5850 5850 5850 5851 5852 5853 5855 5856 5857 5858 5860 5861 5862 5863 5864 5865 5866 5866 5866 5867 5867 5867 5868 5868 5869 5869 5870 5871 5871 5871 5872 5872 5873 5873 5873
5786 5784 5784 5784 5785 5784 5783 5783 5783 5783 5782 5783 5786 5789 5790 5790 5792 5795 5797 5795 5793 5792 5790 5790 5790 5791 5792 5795 5799 5800 5801 5802 5801 5802 5804 5805 5807 5809 5811 5814 5817 5818 5820 5822 5824 5826 5828 5830 5832 5833 5834 5836 5838 5839 5840 5842 5844 5845 5846 5847 5848 5848 5848 5848 5848 5848 5849 5850 5852 5853 5854 5855 5857 5858 5859 5861 5862 5863 5864 5864 5865 5865 5865 5866 5866 5867 5867 5868 5869 5869 5870 5870 5871 5871 5872 5872 5872
5781 5781 5781 5781 5780 5780 5779 5779 5779 5777 5777 5779 5782 5785 5786 5786 5789 5792 5793 5792 5789 5787 5786 5786 5787 5788 5790 5792 5796 5797 5797 5797 5798 5799 5799 5801 5803 5805 5808 5811 5814 5816 5818 5820 5821 5823 5826 5828 5829 5830 5832 5834 5836 5837 5837 5838 5840 5841 5842 5844 5845 5845 5846 5846 5846 5846 5846 5847 5849 5850 5851 5852 5854 5855 5856 5858 5860 5861 5861 5862 5862 5863 5864 5864 5864 5865 5866 5867 5868 5868 5868 5869 5870 5870 5871 5871 5871
5779 5779 5778 5777 5777 5776 5775 5775 5774 5773 5773 5775 5776 5780 5782 5784 5787 5788 5789 5790 5789 5786 5783 5784 5786 5786 5786 5788 5791 5793 5795 5795 5795 5794 5792 5794 5798 5801 5805 5808 5812 5815 5817 5818 5820 5822 5824 5825 5827 5828 5830 5832 5833 5834 5835 5835 5836 5837 5838 5839 5840 5841 5842 5843 5843 5843 5843 5844 5846 5847 5848 5850 5851 5852 5853 5855 5857 5858 5859 5859 5860 5861 5861 5862 5863 5863 5864 5865 5866 5867 5867 5868 5868 5869 5870 5870 5870
5777 5776 5776 5775 5774 5774 5772 5771 5770 5769 5769 5771 5772 5775 5778 5781 5783 5784 5785 5788 5788 5784 5780 5781 5783 5783 5782 5784 5787 5789 5792 5791 5790 5788 5786 5788 5793 5797 5801 5805 5809 5813 5815 5817 5819 5820 5822 5824 5824 5826 5828 5829 5830 5830 5831 5832 5833 5833 5834 5835 5836 5837 5839 5839 5840 5841 5841 5841 5842 5843 5845 5847 5848 5849 5850 5852 5854 5856 5857 5857 5858 5858 5859 5860 5861 5862 5863 5864 5865 5865 5866 5866 5867 5868 5868 5868 5868
5775 5773 5773 5772 5771 5771 5769 5768 5768 5767 5767 5767 5768 5770 5774 5777 5778 5780 5783 5785 5785 5782 5778 5778 5780 5780 5780 5782 5785 5787 5787 5786 5784 5785 5785 5786 5790 5794 5797 5801 5805 5809 5813 5815 5817 5819 5820 5822 5822 5823 5825 5826 5826 5827 5828 5829 5830 5831 5832 5833 5833 5835 5836 5837 5838 5838 5838 5839 5839 5840 5842 5843 5845 5846 5848 5849 5852 5854 5855 5855 5856 5857 5858 5859 5860 5861 5862 5863 5863 5864 5864 5865 5866 5866 5867 5867 5867
5772 5770 5770 5769 5768 5767 5766 5766 5766 5765 5765 5764 5764 5766 5769 5772 5774 5776 5779 5781 5782 5780 5776 5774 5775 5778 5778 5779 5781 5781 5781 5782 5782 5783 5785 5786 5788 5790 5794 5798 5802 5806 5809 5812 5814 5816 5818 5819 5820 5820 5821 5823 5824 5824 5825 5826 5827 5828 5830 5831 5832 5833 5834 5835 5835 5836 5837 5837 5838 5838 5839 5840 5842 5843 5845 5847 5849 5851 5853 5854 5854 5855 5856 5857 5858 5859 5860 5861 5862 5863 5863 5864 5864 5865 5866 5866 5866
5770 5768 5768 5767 5765 5765 5764 5764 5763 5762 5763 5762 5762 5762 5764 5768 5770 5772 5775 5777 5778 5778 5774 5770 5771 5774 5774 5774 5774 5776 5777 5779 5780 5781 5782 5784 5786 5788 5792 5796 5800 5803 5805 5808 5811 5813 5814 5816 5816 5817 5818 5820 5821 5822 5822 5823 5823 5825 5826 5828 5830 5831 5833 5834 5834 5835 5836 5836 5837 5837 5837 5838 5839 5840 5842 5844 5846 5849 5850 5852 5853 5854 5855 5856 5857 5858 5859 5860 5861 5861 5862 5863 5863 5864 5864 5864 5865
5767 5767 5766 5765 5764 5763 5762 5762 5760 5760 5760 5759 5759 5759 5760 5763 5765 5769 5772 5772 5774 5774 5771 5768 5768 5769 5770 5770 5771 5775 5776 5776 5777 5779 5780 5782 5783 5785 5789 5794 5797 5800 5802 5805 5807 5810 5811 5812 5813 5814 5814 5815 5817 5818 5819 5820 5820 5822 5823 5825 5827 5829 5831 5832 5833 5834 5835 5836 5836 5836 5836 5836 5836 5837 5839 5841 5843 5846 5848 5850 5850 5851 5853 5854 5855 5856 5857 5858 5859 5860 5861 5861 5862 5862 5862 5863 5863
5766 5765 5765 5764 5763 5762 5761 5760 5759 5757 5757 5756 5756 5756 5756 5757 5759 5765 5769 5769 5770 5771 5770 5767 5765 5765 5767 5767 5769 5773 5774 5773 5774 5776 5778 5779 5780 5783 5787 5791 5794 5796 5799 5801 5803 5806 5808 5809 5810 5810 5811 5811 5813 5815 5817 5817 5818 5818 5820 5822 5824 5826 5828 5829 5831 5832 5832 5834 5835 5835 5835 5835 5835 5835 5836 5838 5840 5843 5845 5847 5848 5849 5851 5852 5853 5854 5855 5856 5857 5858 5859 5860 5860 5860 5861 5861 5861
5765 5764 5764 5763 5762 5761 5759 5759 5758 5756 5755 5754 5754 5754 5753 5753 5755 5761 5765 5764 5765 5767 5768 5766 5763 5763 5764 5764 5766 5769 5771 5771 5771 5773 5775 5775 5778 5781 5784 5788 5791 5793 5796 5798 5800 5802 5804 5805 5806 5807 5807 5807 5809 5811 5813 5814 5815 5815 5816 5819 5821 5823 5825 5826 5828 5829 5829 5829 5831 5832 5833 5834 5834 5835 5835 5836 5838 5840 5842 5844 5845 5847 5848 5849 5850 5851 5853 5854 5855 5856 5857 5858 5858 5859 5859 5859 5859
5765 5763 5762 5762 5761 5759 5758 5757 5757 5756 5754 5754 5753 5752 5752 5752 5752 5755 5759 5760 5761 5765 5766 5765 5763 5761 5760 5761 5763 5765 5766 5768 5768 5770 5772 5773 5776 5779 5782 5785 5789 5791 5793 5795 5797 5798 5800 5802 5803 5804 5804 5804 5805 5806 5808 5810 5811 5812 5814 5816 5818 5820 5821 5822 5824 5825 5825 5825 5826 5828 5830 5831 5833 5833 5834 5834 5835 5837 5839 5841 5843 5844 5845 5846 5847 5848 5850 5851 5853 5854 5855 5856 5857 5857 5857 5857 5858
5764 5762 5761 5760 5759 5758 5757 5756 5756 5755 5754 5753 5753 5752 5751 5751 5750 5751 5754 5757 5760 5764 5765 5765 5764 5761 5758 5759 5761 5762 5762 5765 5766 5767 5769 5771 5774 5776 5778 5782 5785 5789 5791 5793 5794 5796 5798 5799 5800 5801 5801 5801 5802 5803 5805 5806 5808 5810 5812 5813 5815 5817 5818 5818 5820 5822 5823 5823 5824 5825 5826 5828 5830 5831 5832 5833 5833 5834 5836 5838 5840 5841 5842 5843 5844 5846 5847 5848 5850 5851 5852 5854 5855 5855 5855 5855 5856
5762 5761 5760 5759 5758 5757 5756 5756 5755 5754 5753 5752 5752 5752 5750 5750 5751 5751 5753 5756 5759 5761 5763 5763 5763 5761 5757 5756 5759 5760 5759 5761 5763 5764 5766 5768 5771 5773 5775 5777 5780 5783 5787 5791 5793 5794 5795 5797 5797 5798 5798 5798 5798 5800 5802 5804 5805 5807 5809 5810 5811 5813 5815 5815 5817 5818 5820 5821 5821 5823 5824 5825 5826 5828 5829 5830 5831 5832 5833 5835 5836 5837 5838 5840 5841 5843 5844 5845 5847 5848 5849 5851 5853 5854 5854 5854 5853
5760 5759 5758 5757 5757 5756 5755 5754 5754 5753 5752 5752 5752 5751 5750 5750 5750 5751 5752 5754 5757 5759 5760 5761 5760 5758 5755 5754 5756 5757 5757 5757 5759 5762 5764 5766 5768 5769 5771 5773 5775 5778 5781 5785 5789 5791 5792 5793 5793 5794 5794 5795 5795 5796 5799 5801 5802 5804 5806 5807 5807 5808 5810 5812 5813 5814 5816 5817 5818 5820 5821 5823 5824 5825 5826 5828 5829 5830 5831 5831 5833 5834 5835 5836 5838 5839 5841 5842 5843 5845 5847 5849 5851 5852 5852 5852 5852
5759 5758 5756 5755 5755 5754 5754 5753 5753 5753 5752 5752 5751 5750 5750 5749 5749 5750 5751 5753 5755 5756 5757 5757 5756 5754 5753 5752 5752 5754 5755 5756 5757 5760 5762 5764 5766 5767 5768 5769 5771 5774 5776 5778 5782 5786 5787 5788 5788 5788 5789 5790 5791 5792 5795 5797 5797 5799 5801 5802 5802 5802 5803 5805 5807 5809 5811 5813 5815 5817 5818 5820 5821 5822 5823 5824 5826 5827 5828 5829 5829 5830 5832 5833 5834 5836 5838 5839 5840 5842 5844 5846 5848 5850 5850 5851 5850
5757 5756 5755 5754 5753 5753 5753 5752 5752 5751 5751 5751 5751 5750 5749 5749 5749 5749 5750 5751 5752 5752 5753 5753 5751 5751 5751 5751 5751 5753 5755 5755 5756 5758 5760 5762 5763 5765 5766 5766 5768 5770 5772 5773 5774 5777 5780 5781 5781 5782 5784 5786 5787 5788 5790 5792 5792 5794 5796 5797 5797 5797 5798 5798 5800 5802 5805 5808 5810 5813 5814 5816 5817 5818 5819 5820 5821 5823 5825 5826 5827 5827 5829 5830 5831 5833 5834 5836 5837 5839 5841 5843 5845 5847 5848 5848 5849
5755 5754 5754 5753 5752 5752 5751 5751 5750 5750 5750 5750 5750 5750 5749 5748 5748 5748 5748 5749 5749 5750 5749 5749 5749 5750 5751 5751 5751 5752 5753 5754 5755 5756 5757 5758 5759 5761 5762 5763 5765 5766 5767 5768 5768 5769 5771 5774 5777 5779 5781 5783 5784 5784 5784 5786 5787 5788 5790 5791 5793 5794 5794 5794 5794 5796 5799 5801 5805 5808 5810 5812 5813 5814 5815 5816 5817 5819 5821 5824 5825 5825 5826 5827 5828 5830 5831 5833 5835 5836 5838 5840 5842 5844 5845 5846 5847
5753 5753 5752 5751 5751 5750 5750 5750 5749 5748 5748 5748 5749 5749 5749 5748 5748 5748 5747 5747 5747 5746 5746 5746 5747 5749 5750 5749 5749 5749 5749 5751 5752 5753 5754 5755 5756 5757 5759 5760 5760 5761 5762 5763 5763 5763 5764 5767 5771 5774 5776 5779 5780 5779 5779 5780 5781 5782 5783 5785 5787 5789 5790 5791 5790 5791 5794 5796 5799 5802 5805 5807 5808 5810 5811 5812 5813 5815 5818 5821 5823 5824 5824 5825 5826 5827 5828 5829 5831 5833 5834 5837 5839 5841 5843 5844 5844
5752 5751 5751 5750 5749 5749 5748 5748 5747 5746 5747 5747 5747 5747 5748 5748 5748 5748 5746 5745 5744 5743 5743 5743 5744 5745 5746 5746 5746 5746 5746 5747 5749 5750 5751 5752 5753 5754 5756 5757 5757 5757 5757 5758 5759 5758 5758 5760 5764 5768 5771 5773 5775 5775 5774 5775 5776 5777 5779 5780 5782 5785 5787 5787 5787 5788 5790 5791 5793 5797 5800 5802 5803 5806 5808 5809 5810 5811 5813 5817 5820 5822 5822 5822 5823 5823 5824 5825 5827 5830 5832 5834 5837 5839 5840 5841 5842
5750 5750 5749 5749 5748 5747 5747 5747 5746 5745 5745 5746 5745 5745 5746 5746 5746 5746 5745 5744 5743 5742 5741 5741 5741 5741 5742 5743 5744 5744 5743 5744 5745 5746 5747 5748 5750 5751 5753 5754 5755 5755 5755 5755 5755 5755 5754 5754 5757 5761 5764 5767 5769 5770 5769 5770 5771 5772 5774 5776 5779 5781 5783 5784 5785 5787 5787 5788 5789 5793 5796 5798 5799 5801 5804 5805 5807 5807 5809 5812 5816 5819 5820 5820 5819 5819 5820 5822 5824 5826 5829 5831 5833 5835 5837 5838 5839
5749 5748 5747 5747 5746 5746 5746 5745 5745 5744 5744 5744 5744 5744 5744 5743 5743 5743 5743 5742 5741 5741 5740 5739 5739 5739 5739 5740 5741 5741 5741 5741 5742 5743 5744 5746 5747 5749 5750 5751 5751 5751 5751 5750 5750 5750 5750 5750 5750 5753 5757 5760 5763 5764 5765 5764 5765 5767 5770 5772 5774 5777 5778 5780 5781 5783 5784 5784 5786 5788 5791 5794 5796 5797 5799 5801 5803 5805 5806 5808 5811 5814 5817 5817 5817 5817 5817 5819 5821 5823 5825 5827 5829 5831 5833 5835 5836
5747 5746 5746 5745 5745 5744 5744 5744 5743 5743 5743 5743 5743 5742 5742 5741 5741 5741 5740 5740 5739 5739 5738 5738 5738 5738 5738 5738 5739 5739 5739 5739 5739 5740 5742 5743 5744 5744 5745 5745 5745 5745 5745 5745 5745 5745 5746 5746 5746 5748 5751 5755 5757 5759 5760 5760 5761 5762 5764 5767 5769 5772 5775 5775 5776 5777 5778 5780 5782 5784 5786 5789 5792 5793 5795 5797 5799 5802 5803 5804 5806 5808 5812 5814 5815 5815 5815 5815 5817 5818 5820 5822 5824 5827 5829 5831 5832
5746 5744 5744 5744 5743 5743 5742 5742 5742 5742 5741 5741 5741 5740 5740 5740 5740 5738 5737 5737 5737 5736 5736 5736 5737 5737 5737 5737 5737 5737 5737 5736 5736 5737 5737 5738 5738 5739 5739 5739 5739 5739 5739 5740 5741 5741 5742 5742 5742 5743 5745 5749 5751 5753 5755 5756 5757 5757 5759 5761 5763 5766 5769 5769 5772 5773 5774 5776 5778 5779 5781 5783 5786 5789 5791 5792 5795 5798 5799 5801 5802 5803 5805 5808 5810 5812 5812 5812 5813 5815 5816 5818 5820 5823 5824 5826 5828
5744 5742 5742 5742 5741 5741 5740 5740 5740 5740 5740 5739 5739 5738 5738 5738 5738 5737 5734 5733 5733 5734 5734 5735 5735 5736 5736 5736 5736 5735 5735 5735 5735 5734 5734 5734 5735 5735 5735 5735 5734 5735 5735 5736 5736 5737 5737 5738 5738 5739 5740 5742 5745 5747 5749 5750 5752 5752 5754 5755 5756 5759 5762 5763 5766 5769 5770 5772 5775 5776 5777 5778 5780 5784 5786 5789 5791 5793 5795 5796 5797 5798 5799 5802 5805 5808 5809 5810 5811 5811 5812 5814 5816 5818 5819 5822 5824
5742 5740 5741 5741 5740 5739 5739 5738 5737 5737 5737 5737 5736 5736 5736 5736 5736 5735 5732 5731 5730 5731 5732 5733 5734 5734 5735 5735 5734 5734 5733 5733 5733 5733 5733 5733 5733 5732 5732 5731 5731 5731 5731 5731 5732 5732 5733 5734 5735 5735 5736 5737 5739 5741 5743 5744 5746 5747 5748 5749 5750 5752 5756 5758 5761 5764 5765 5767 5770 5773 5773 5773 5776 5779 5782 5784 5787 5789 5790 5791 5793 5795 5796 5798 5800 5803 5805 5807 5808 5808 5808 5810 5812 5813 5815 5818 5821
5741 5739 5739 5739 5738 5738 5737 5736 5736 5735 5735 5735 5734 5733 5733 5733 5734 5732 5730 5729 5729 5730 5730 5731 5732 5733 5733 5733 5733 5732 5731 5731 5732 5732 5732 5731 5731 5730 5729 5729 5729 5729 5728 5728 5728 5728 5728 5730 5731 5731 5732 5732 5733 5735 5737 5738 5739 5741 5742 5744 5745 5747 5751 5754 5756 5757 5760 5762 5765 5767 5768 5770 5773 5774 5777 5780 5782 5784 5785 5786 5788 5791 5794 5795 5796 5799 5802 5803 5804 5805 5805 5806 5808 5809 5812 5814 5815
5739 5738 5737 5737 5736 5736 5735 5735 5734 5733 5733 5733 5732 5731 5730 5731 5732 5730 5728 5728 5728 5729 5730 5730 5731 5731 5730 5730 5730 5729 5729 5730 5731 5730 5729 5728 5727 5727 5727 5726 5726 5726 5725 5725 5725 5725 5725 5725 5726 5727 5727 5727 5728 5729 5730 5732 5733 5735 5737 5738 5739 5741 5745 5749 5750 5752 5755 5757 5759 5762 5764 5766 5768 5770 5772 5775 5777 5779 5781 5782 5783 5785 5789 5791 5792 5795 5798 5799 5801 5802 5802 5803 5804 5805 5807 5809 5811
5737 5736 5735 5734 5734 5733 5733 5733 5732 5731 5731 5731 5729 5728 5728 5729 5730 5728 5727 5727 5727 5728 5728 5728 5729 5728 5727 5726 5726 5726 5727 5728 5728 5727 5726 5725 5724 5724 5723 5723 5722 5721 5720 5720 5721 5721 5721 5721 5721 5722 5723 5723 5723 5724 5724 5726 5728 5729 5731 5732 5733 5735 5738 5742 5745 5747 5749 5751 5753 5756 5759 5761 5763 5765 5768 5771 5772 5774 5776 5776 5777 5779 5783 5786 5788 5790 5793 5796 5798 5799 5799 5800 5800 5801 5803 5805 5807
5735 5734 5733 5733 5732 5731 5731 5730 5730 5729 5729 5728 5727 5727 5726 5726 5728 5727 5726 5726 5726 5726 5726 5726 5726 5726 5724 5723 5723 5723 5724 5725 5724 5723 5722 5721 5720 5720 5719 5719 5718 5717 5716 5716 5716 5716 5716 5716 5717 5717 5718 5718 5718 5719 5719 5720 5722 5723 5724 5726 5727 5729 5731 5735 5739 5741 5743 5745 5748 5751 5753 5755 5757 5759 5763 5766 5767 5768 5770 5771 5772 5774 5777 5780 5783 5786 5789 5792 5793 5794 5795 5796 5797 5798 5799 5801 5802
5733 5732 5731 5731 5730 5729 5729 5728 5727 5727 5727 5726 5725 5725 5724 5724 5725 5725 5724 5724 5723 5723 5724 5724 5724 5723 5722 5720 5720 5721 5722 5722 5721 5720 5719 5717 5715 5714 5714 5714 5713 5712 5712 5712 5711 5711 5711 5711 5711 5712 5713 5713 5713 5714 5714 5715 5716 5717 5718 5719 5721 5723 5725 5728 5732 5734 5736 5739 5742 5745 5747 5750 5752 5754 5757 5761 5763 5764 5765 5766 5768 5770 5772 5775 5778 5781 5784 5786 5788 5789 5790 5792 5794 5796 5796 5797 5798
5730 5729 5728 5729 5728 5727 5727 5726 5725 5725 5724 5723 5723 5722 5722 5722 5722 5723 5722 5722 5721 5721 5721 5721 5721 5720 5719 5717 5717 5718 5719 5719 5718 5717 5716 5714 5712 5711 5710 5710 5709 5708 5708 5707 5707 5707 5706 5706 5706 5707 5708 5708 5708 5709 5709 5709 5710 5711 5711 5712 5714 5717 5718 5721 5724 5727 5730 5732 5735 5738 5741 5744 5746 5749 5751 5754 5757 5758 5759 5761 5763 5765 5768 5770 5773 5776 5778 5781 5783 5784 5786 5788 5790 5792 5793 5793 5795
5728 5727 5726 5726 5726 5725 5725 5724 5723 5723 5723 5721 5720 5720 5720 5720 5720 5720 5720 5719 5719 5719 5719 5718 5717 5717 5716 5715 5714 5714 5715 5715 5715 5715 5713 5711 5710 5709 5708 5707 5705 5704 5703 5703 5702 5702 5702 5702 5701 5702 5703 5703 5703 5704 5704 5704 5704 5705 5705 5706 5707 5709 5711 5714 5717 5720 5723 5725 5728 5731 5734 5737 5740 5743 5746 5748 5751 5752 5754 5756 5757 5759 5762 5765 5767 5769 5772 5774 5777 5779 5781 5783 5785 5787 5788 5789 5791
5725 5724 5724 5724 5723 5723 5722 5722 5721 5721 5720 5719 5717 5717 5717 5717 5717 5717 5716 5716 5716 5716 5716 5715 5714 5714 5713 5712 5711 5711 5711 5712 5712 5711 5710 5709 5707 5706 5705 5703 5702 5700 5699 5699 5698 5698 5698 5697 5697 5697 5697 5697 5698 5698 5699 5699 5699 5699 5699 5700 5701 5702 5704 5707 5710 5713 5716 5718 5721 5724 5727 5730 5733 5736 5739 5742 5744 5746 5748 5751 5752 5754 5757 5759 5761 5764 5766 5769 5771 5774 5776 5778 5780 5782 5783 5785 5788
5723 5722 5722 5721 5720 5720 5720 5719 5719 5718 5718 5717 5715 5714 5714 5714 5714 5714 5714 5714 5714 5713 5713 5712 5711 5711 5711 5710 5709 5709 5709 5709 5708 5707 5706 5705 5704 5702 5701 5699 5698 5696 5696 5695 5694 5693 5693 5693 5693 5692 5692 5692 5692 5692 5693 5693 5694 5694 5694 5694 5695 5696 5697 5700 5703 5705 5709 5711 5714 5717 5721 5723 5726 5729 5733 5736 5739 5741 5743 5746 5748 5750 5752 5753 5755 5758 5761 5763 5766 5768 5770 5772 5775 5777 5778 5781 5783
5721 5721 5720 5719 5718 5718 5718 5717 5716 5715 5715 5714 5713 5712 5712 5711 5711 5711 5711 5711 5711 5710 5710 5709 5708 5708 5707 5707 5706 5706 5705 5705 5704 5703 5702 5701 5700 5699 5697 5695 5694 5692 5691 5690 5690 5689 5688 5688 5688 5688 5687 5686 5686 5686 5687 5687 5688 5689 5689 5689 5689 5690 5690 5692 5695 5698 5701 5704 5707 5710 5713 5716 5719 5723 5726 5730 5733 5735 5737 5740 5742 5744 5747 5749 5750 5753 5755 5757 5759 5762 5765 5768 5770 5772 5774 5776 5778
5719 5719 5718 5717 5716 5715 5715 5714 5713 5713 5712 5711 5710 5710 5709 5709 5708 5708 5708 5707 5707 5707 5706 5706 5705 5705 5704 5704 5703 5703 5703 5702 5701 5699 5698 5696 5695 5694 5692 5691 5690 5688 5687 5686 5685 5685 5684 5683 5683 5683 5682 5682 5681 5681 5681 5681 5682 5683 5683 5683 5683 5684 5684 5685 5688 5691 5694 5697 5700 5703 5705 5709 5712 5715 5719 5723 5726 5728 5730 5734 5736 5739 5741 5744 5746 5747 5750 5751 5752 5756 5761 5764 5765 5767 5768 5771 5772
5717 5716 5715 5715 5714 5713 5713 5713 5712 5711 5710 5709 5708 5707 5707 5707 5706 5705 5705 5705 5704 5704 5704 5703 5703 5703 5702 5701 5700 5700 5700 5698 5697 5695 5693 5691 5690 5688 5687 5686 5685 5683 5682 5681 5680 5680 5680 5679 5678 5678 5677 5677 5676 5676 5676 5676 5676 5676 5677 5677 5677 5678 5679 5680 5681 5684 5687 5690 5693 5696 5698 5701 5705 5708 5712 5716 5719 5722 5725 5727 5730 5732 5735 5738 5740 5741 5744 5745 5747 5751 5755 5758 5760 5761 5763 5766 5768
5714 5714 5713 5712 5712 5711 5711 5711 5710 5708 5708 5707 5706 5706 5706 5705 5704 5703 5703 5702 5701 5700 5700 5700 5700 5700 5699 5698 5697 5696 5695 5693 5692 5690 5688 5687 5685 5683 5682 5681 5679 5678 5677 5676 5675 5675 5675 5674 5673 5673 5672 5672 5671 5671 5670 5670 5670 5670 5671 5671 5672 5672 5673 5674 5675 5676 5679 5682 5685 5688 5691 5694 5697 5701 5705 5708 5712 5716 5719 5721 5724 5726 5729 5731 5733 5736 5738 5740 5742 5745 5748 5752 5755 5756 5756 5760 5764
5711 5711 5710 5710 5710 5709 5709 5709 5707 5705 5705 5704 5703 5703 5704 5703 5701 5700 5700 5699 5698 5697 5697 5697 5697 5696 5695 5694 5693 5693 5691 5689 5687 5686 5684 5683 5681 5679 5677 5676 5674 5672 5671 5671 5670 5670 5670 5669 5669 5669 5668 5667 5666 5666 5665 5664 5665 5665 5665 5665 5665 5666 5667 5668 5669 5670 5672 5675 5677 5680 5683 5686 5689 5694 5697 5700 5704 5708 5712 5715 5717 5720 5722 5724 5727 5730 5732 5734 5737 5740 5741 5745 5750 5750 5751 5755 5757
5709 5709 5707 5707 5707 5706 5706 5706 5705 5703 5702 5701 5699 5699 5701 5701 5698 5698 5697 5696 5695 5695 5695 5694 5694 5693 5692 5691 5690 5690 5688 5686 5684 5682 5681 5679 5677 5675 5673 5671 5669 5667 5666 5666 5665 5665 5665 5665 5664 5664 5663 5662 5662 5661 5660 5659 5659 5659 5660 5659 5660 5660 5661 5661 5663 5664 5666 5667 5669 5671 5674 5678 5682 5686 5690 5693 5696 5699 5704 5708 5711 5713 5716 5718 5721 5724 5727 5729 5731 5733 5735 5738 5742 5743 5746 5749 5750